FW8575 Weather Reports


time (UTC)temp
C
wind
direction
speed
KPH
gust
KPH
rain 1hr
cm
rain 24hr
cm
rain mn
cm
humidity
%
barometer
mb
20260903011505 28 201 4.8 8.0 0.00 0.00 0.00 79 1010.9
20260903011006 28 215 4.8 9.7 0.00 0.00 0.00 79 1010.8
20260903010504 28 184 4.8 9.7 0.00 0.00 0.00 79 1010.8
20260903010005 28 206 4.8 11.3 0.00 0.00 0.00 79 1010.8
20260903005505 28 215 4.8 11.3 0.00 0.00 0.00 78 1010.7
20260903005006 29 194 6.4 11.3 0.00 0.00 0.00 78 1010.7
20260903004505 29 201 6.4 9.7 0.00 0.00 0.00 78 1010.5
20260903004006 29 189 4.8 11.3 0.00 0.00 0.00 77 1010.4
20260903003505 29 202 1.6 8.0 0.00 0.00 0.00 77 1010.5
20260903003006 29 187 4.8 11.3 0.00 0.00 0.00 77 1010.5
20260903002504 30 213 3.2 4.8 0.00 0.00 0.00 76 1010.5
20260903002006 30 210 4.8 9.7 0.00 0.00 0.00 76 1010.5
20260903001504 30 199 3.2 9.7 0.00 0.00 0.00 76 1010.5
20260903001005 30 217 4.8 11.3 0.00 0.00 0.00 75 1010.5
20260903000505 30 198 1.6 4.8 0.00 0.00 0.00 74 1010.6
20260903000004 30 197 3.2 8.0 0.00 0.00 0.00 73 1010.6
20260902235005 31 196 4.8 9.7 0.00 0.00 0.00 71 1010.6
20260902234504 31 201 3.2 9.7 0.00 0.00 0.00 71 1010.7
20260902233504 31 191 4.8 19.3 0.00 0.00 0.00 70 1010.7
20260902233005 31 227 8.0 12.9 0.00 0.00 0.00 69 1010.8
20260902232505 31 207 6.4 12.9 0.00 0.00 0.00 70 1010.8
20260902232006 31 226 6.4 14.5 0.00 0.00 0.00 70 1010.8
20260902231505 31 229 8.0 14.5 0.00 0.00 0.00 69 1010.8
20260902231005 32 223 4.8 19.3 0.00 0.00 0.00 69 1010.8
20260902230506 32 214 9.7 19.3 0.00 0.00 0.00 69 1010.8
20260902230005 32 218 9.7 19.3 0.00 0.00 0.00 68 1010.8
20260902225006 32 217 9.7 19.3 0.00 0.00 0.00 67 1010.8
20260902224504 32 218 9.7 19.3 0.00 0.00 0.00 66 1010.7
20260902224005 32 205 8.0 12.9 0.00 0.00 0.00 65 1010.8
20260902223504 33 210 8.0 16.1 0.00 0.00 0.00 65 1010.8
20260902223005 33 227 6.4 12.9 0.00 0.00 0.00 65 1010.9
20260902222005 33 225 9.7 14.5 0.00 0.00 0.00 64 1010.9
20260902221504 33 233 9.7 19.3 0.00 0.00 0.00 63 1010.9
20260902221005 33 241 6.4 19.3 0.00 0.00 0.00 63 1010.9
20260902220504 33 225 9.7 19.3 0.00 0.00 0.00 63 1010.9
20260902220004 33 191 8.0 19.3 0.00 0.00 0.00 63 1010.9
20260902215005 33 233 9.7 20.9 0.00 0.00 0.00 63 1010.9
20260902214504 33 228 11.3 19.3 0.00 0.00 0.00 62 1010.9
20260902213006 33 209 11.3 19.3 0.00 0.00 0.00 63 1010.9
20260902212504 33 211 9.7 16.1 0.00 0.00 0.00 63 1010.9
20260902212005 33 225 9.7 20.9 0.00 0.00 0.00 63 1010.9
20260902211504 33 220 16.1 24.1 0.00 0.00 0.00 63 1010.9
20260902211006 33 236 11.3 22.5 0.00 0.00 0.00 62 1011.0
20260902210505 33 225 14.5 24.1 0.00 0.00 0.00 63 1011.0
20260902210004 33 212 9.7 22.5 0.00 0.00 0.00 63 1011.0
20260902205504 33 218 9.7 22.5 0.00 0.00 0.00 62 1011.1
20260902205005 33 185 9.7 16.1 0.00 0.00 0.00 61 1011.1
20260902204505 33 217 12.9 20.9 0.00 0.00 0.00 60 1011.2
20260902204005 33 212 9.7 19.3 0.00 0.00 0.00 62 1011.3
20260902203504 33 230 12.9 22.5 0.00 0.00 0.00 61 1011.3
20260902203005 33 220 11.3 20.9 0.00 0.00 0.00 61 1011.4
20260902202005 33 231 11.3 22.5 0.00 0.00 0.00 60 1011.4
20260902201505 33 206 9.7 22.5 0.00 0.00 0.00 60 1011.4
20260902200505 33 191 9.7 19.3 0.00 0.00 0.00 60 1011.4
20260902200004 33 196 11.3 19.3 0.00 0.00 0.00 59 1011.5
20260902195506 33 198 9.7 16.1 0.00 0.00 0.00 59 1011.5
20260902195005 33 204 8.0 20.9 0.00 0.00 0.00 59 1011.5
20260902194504 33 190 11.3 22.5 0.00 0.00 0.00 59 1011.6
20260902194005 33 223 9.7 22.5 0.00 0.00 0.00 60 1011.6
20260902193504 33 212 9.7 20.9 0.00 0.00 0.00 58 1011.7
20260902193004 33 168 8.0 19.3 0.00 0.00 0.00 59 1011.8
20260902192504 33 210 8.0 19.3 0.00 0.00 0.00 58 1011.8
20260902192005 34 189 9.7 19.3 0.00 0.00 0.00 57 1011.9
20260902191504 34 197 8.0 22.5 0.00 0.00 0.00 59 1011.9
20260902191004 34 208 8.0 16.1 0.00 0.00 0.00 59 1011.9
20260902190505 34 211 4.8 12.9 0.00 0.00 0.00 60 1012.0
20260902190004 33 226 11.3 19.3 0.00 0.00 0.00 57 1012.0
20260902185504 33 225 9.7 19.3 0.00 0.00 0.00 57 1011.9
20260902185005 33 187 9.7 19.3 0.00 0.00 0.00 58 1011.9
20260902184504 33 207 12.9 20.9 0.00 0.00 0.00 58 1011.9
20260902184005 33 198 11.3 19.3 0.00 0.00 0.00 58 1012.0
20260902183504 33 215 11.3 19.3 0.00 0.00 0.00 59 1012.0
20260902182504 33 234 8.0 19.3 0.00 0.00 0.00 58 1012.1
20260902181504 33 189 11.3 19.3 0.00 0.00 0.00 59 1012.3
20260902181005 33 228 9.7 19.3 0.00 0.00 0.00 61 1012.3
20260902175504 33 188 8.0 16.1 0.00 0.00 0.00 61 1012.5
20260902175005 33 228 11.3 19.3 0.00 0.00 0.00 58 1012.6
20260902174503 33 200 11.3 24.1 0.00 0.00 0.00 61 1012.5
20260902174005 33 249 11.3 24.1 0.00 0.00 0.00 61 1012.7
20260902173504 33 193 9.7 19.3 0.00 0.00 0.00 62 1012.7
20260902173005 33 241 9.7 20.9 0.00 0.00 0.00 62 1012.7
20260902172507 33 198 8.0 22.5 0.00 0.00 0.00 62 1012.8
20260902172007 33 213 9.7 12.9 0.00 0.00 0.00 62 1012.8
20260902171507 32 213 9.7 16.1 0.00 0.00 0.00 63 1012.8
20260902171008 32 202 11.3 20.9 0.00 0.00 0.00 63 1012.9
20260902170507 32 217 9.7 19.3 0.00 0.00 0.00 63 1012.9
20260902170007 32 206 6.4 12.9 0.00 0.00 0.00 66 1012.9
20260902165506 32 213 9.7 19.3 0.00 0.00 0.00 64 1013.0
20260902165008 32 186 9.7 14.5 0.00 0.00 0.00 65 1013.0
20260902164507 32 223 8.0 16.1 0.00 0.00 0.00 65 1013.1
20260902164008 32 239 6.4 14.5 0.00 0.00 0.00 66 1013.1
20260902163506 32 225 6.4 14.5 0.00 0.00 0.00 65 1013.1
20260902163007 32 235 9.7 19.3 0.00 0.00 0.00 65 1013.1
20260902162507 32 196 8.0 16.1 0.00 0.00 0.00 66 1013.1
20260902162008 31 219 8.0 19.3 0.00 0.00 0.00 67 1013.2
20260902161008 31 177 8.0 14.5 0.00 0.00 0.00 68 1013.3
20260902160506 31 222 8.0 16.1 0.00 0.00 0.00 68 1013.3
20260902155507 31 243 12.9 19.3 0.00 0.03 0.00 68 1013.3
20260902155008 31 213 11.3 19.3 0.00 0.03 0.00 68 1013.3
20260902154506 31 231 8.0 14.5 0.00 0.03 0.00 69 1013.4
20260902154008 31 216 8.0 12.9 0.00 0.03 0.00 70 1013.4
20260902153007 30 209 4.8 14.5 0.00 0.03 0.00 70 1013.5
20260902152506 30 201 8.0 14.5 0.00 0.03 0.00 70 1013.4
20260902152008 30 176 8.0 11.3 0.00 0.03 0.00 71 1013.4
20260902151506 30 221 4.8 19.3 0.00 0.03 0.00 72 1013.4
20260902151007 30 225 8.0 14.5 0.00 0.03 0.00 72 1013.3
20260902150506 30 223 6.4 11.3 0.00 0.03 0.00 73 1013.3
20260902150006 30 237 4.8 12.9 0.00 0.03 0.00 74 1013.4
20260902145008 29 219 4.8 16.1 0.00 0.03 0.00 74 1013.4
20260902144506 28 228 8.0 14.5 0.00 0.03 0.00 74 1013.4
20260902143506 28 286 6.4 14.5 0.00 0.03 0.00 76 1013.3
20260902142007 27 224 9.7 16.1 0.00 0.03 0.00 77 1013.3
20260902141506 27 217 6.4 19.3 0.00 0.03 0.00 77 1013.3
20260902141007 27 232 8.0 16.1 0.00 0.03 0.00 77 1013.3
20260902140507 27 202 9.7 14.5 0.00 0.03 0.00 78 1013.3
20260902140007 27 233 9.7 14.5 0.00 0.03 0.00 78 1013.3
20260902135506 27 237 9.7 16.1 0.00 0.03 0.00 79 1013.3
20260902135007 26 204 6.4 14.5 0.00 0.03 0.00 81 1013.3
20260902134506 26 224 11.3 19.3 0.00 0.03 0.00 81 1013.4
20260902134007 26 197 8.0 14.5 0.00 0.03 0.00 82 1013.4
20260902133506 26 233 9.7 16.1 0.00 0.03 0.00 83 1013.4
20260902133007 26 230 9.7 14.5 0.00 0.03 0.00 83 1013.5
20260902132506 26 226 8.0 14.5 0.00 0.03 0.00 84 1013.6
20260902132007 25 224 8.0 19.3 0.00 0.03 0.00 85 1013.7
20260902131506 25 230 8.0 24.1 0.00 0.03 0.00 86 1013.7
20260902131007 25 229 9.7 19.3 0.00 0.03 0.00 87 1013.6
20260902130506 25 231 9.7 12.9 0.00 0.03 0.00 88 1013.7
20260902130007 24 240 4.8 14.5 0.00 0.03 0.00 89 1013.7
20260902125007 23 212 6.4 11.3 0.00 0.03 0.00 90 1013.6
20260902124506 23 233 6.4 12.9 0.00 0.03 0.00 91 1013.6
20260902124007 23 229 9.7 14.5 0.00 0.03 0.00 92 1013.7
20260902123506 23 221 6.4 9.7 0.00 0.03 0.00 93 1013.6
20260902123007 23 233 8.0 11.3 0.00 0.03 0.00 93 1013.7
20260902122506 23 220 4.8 9.7 0.00 0.03 0.00 93 1013.7
20260902122007 23 231 4.8 9.7 0.00 0.03 0.00 94 1013.7
20260902121507 23 230 6.4 8.0 0.00 0.03 0.00 94 1013.8
20260902121009 22 232 4.8 8.0 0.00 0.03 0.00 94 1013.7
20260902120506 22 221 3.2 8.0 0.00 0.03 0.00 94 1013.7
20260902120006 22 216 3.2 9.7 0.00 0.03 0.00 94 1013.7
20260902115508 22 221 1.6 8.0 0.00 0.03 0.00 94 1013.7
20260902115006 22 226 4.8 8.0 0.00 0.03 0.00 94 1013.6
20260902114506 22 221 3.2 8.0 0.00 0.03 0.00 94 1013.6
20260902114007 22 207 0.0 0.0 0.00 0.03 0.00 94 1013.6
20260902112506 22 205 0.0 0.0 0.00 0.03 0.00 94 1013.5
20260902112007 22 205 0.0 0.0 0.00 0.03 0.00 94 1013.4
20260902111007 22 205 0.0 0.0 0.00 0.03 0.00 93 1013.4
20260902110506 22 205 0.0 0.0 0.00 0.03 0.00 93 1013.4
20260902110008 22 205 0.0 0.0 0.00 0.03 0.00 93 1013.4
20260902105506 22 205 0.0 0.0 0.00 0.03 0.00 93 1013.4
20260902105006 22 205 0.0 0.0 0.00 0.03 0.00 93 1013.3
20260902104506 22 205 0.0 0.0 0.00 0.03 0.00 93 1013.3
20260902104007 22 205 0.0 0.0 0.00 0.03 0.00 93 1013.3
20260902103506 22 205 0.0 0.0 0.00 0.03 0.00 93 1013.3
20260902102505 22 204 0.0 0.0 0.00 0.03 0.00 92 1013.2
20260902102007 22 204 0.0 0.0 0.00 0.03 0.00 92 1013.2
20260902101506 22 204 0.0 0.0 0.00 0.03 0.00 92 1013.1
20260902101007 22 204 0.0 0.0 0.00 0.03 0.00 92 1013.1
20260902100505 22 204 0.0 0.0 0.00 0.03 0.00 92 1013.1
20260902100006 23 204 0.0 0.0 0.00 0.03 0.00 92 1013.3
20260902095505 23 204 0.0 0.0 0.00 0.03 0.00 92 1013.1
20260902095007 23 203 0.0 1.6 0.00 0.03 0.00 92 1013.0
20260902094506 23 204 0.0 3.2 0.00 0.03 0.00 92 1012.9
20260902094006 23 200 3.2 4.8 0.00 0.03 0.00 92 1012.9
20260902093506 23 196 1.6 8.0 0.00 0.03 0.00 91 1012.9
20260902093007 23 228 0.0 0.0 0.00 0.03 0.00 91 1012.9
20260902092006 23 228 0.0 0.0 0.00 0.03 0.00 91 1012.8
20260902091506 23 228 0.0 0.0 0.00 0.03 0.00 91 1012.8
20260902090506 23 228 0.0 0.0 0.00 0.03 0.00 91 1012.7
20260902090006 23 228 0.0 0.0 0.00 0.03 0.00 91 1012.7
20260902085506 23 228 0.0 0.0 0.00 0.03 0.00 91 1012.7
20260902085006 23 229 0.0 0.0 0.00 0.03 0.00 91 1012.8
20260902084506 23 228 0.0 0.0 0.00 0.03 0.00 91 1012.8
20260902084006 23 229 0.0 0.0 0.00 0.03 0.00 91 1012.8
20260902083506 23 229 0.0 0.0 0.00 0.03 0.00 90 1012.8
20260902083006 23 228 0.0 4.8 0.00 0.03 0.00 90 1012.8
20260902082505 23 229 0.0 0.0 0.00 0.03 0.00 90 1012.8
20260902081506 23 229 1.6 4.8 0.00 0.03 0.00 90 1012.8
20260902081006 24 232 0.0 8.0 0.00 0.03 0.00 90 1012.8
20260902080505 24 237 0.0 8.0 0.00 0.03 0.00 90 1012.8
20260902080006 24 233 1.6 8.0 0.00 0.03 0.00 90 1012.8
20260902075505 24 223 3.2 8.0 0.00 0.03 0.00 90 1012.8
20260902075007 24 245 0.0 0.0 0.00 0.03 0.00 90 1012.7
20260902074505 24 244 0.0 0.0 0.00 0.03 0.00 90 1012.8
20260902074007 24 244 0.0 0.0 0.00 0.03 0.00 90 1012.7
20260902073505 24 244 0.0 0.0 0.00 0.03 0.00 90 1012.7
20260902073006 24 240 0.0 8.0 0.00 0.03 0.00 90 1012.7
20260902072505 24 228 3.2 8.0 0.00 0.03 0.00 90 1012.7
20260902072007 24 223 1.6 11.3 0.00 0.03 0.00 90 1012.7
20260902070505 24 219 0.0 0.0 0.00 0.03 0.00 89 1012.5
20260902070007 24 219 0.0 0.0 0.00 0.03 0.00 89 1012.6
20260902064506 25 219 0.0 0.0 0.00 0.03 0.00 89 1012.5
20260902064006 25 219 0.0 0.0 0.00 0.03 0.00 89 1012.4
20260902063506 25 219 0.0 0.0 0.00 0.03 0.00 89 1012.5
20260902063006 25 219 0.0 0.0 0.00 0.03 0.00 89 1012.5
20260902061506 25 219 1.6 3.2 0.00 0.03 0.00 89 1012.7
20260902061006 25 219 0.0 0.0 0.00 0.03 0.00 89 1012.7
20260902060005 25 219 0.0 0.0 0.00 0.03 0.00 89 1012.8
20260902055505 25 219 0.0 0.0 0.00 0.03 0.00 89 1012.8
20260902054505 25 219 0.0 3.2 0.00 0.03 0.00 88 1012.8
20260902053505 25 223 0.0 0.0 0.00 0.03 0.00 88 1012.8
20260902053006 25 222 0.0 0.0 0.00 0.03 0.00 88 1012.8
20260902052505 25 222 0.0 0.0 0.00 0.03 0.00 88 1012.8
20260902052006 25 221 0.0 0.0 0.00 0.03 0.00 87 1012.8
20260902051505 25 221 0.0 0.0 0.00 0.03 0.00 87 1012.8
20260902051006 25 221 0.0 0.0 0.00 0.03 0.00 87 1012.8
20260902050505 26 221 0.0 0.0 0.00 0.03 0.00 87 1012.8
20260902050008 26 221 0.0 4.8 0.00 0.03 0.00 87 1012.8
20260902045505 26 221 1.6 8.0 0.00 0.03 0.00 87 1012.8
20260902045006 26 223 1.6 4.8 0.00 0.03 0.00 87 1012.8
20260902044505 26 219 1.6 4.8 0.00 0.03 0.00 87 1012.8
20260902044006 26 220 3.2 4.8 0.00 0.03 0.00 87 1012.8
20260902043505 26 225 1.6 9.7 0.00 0.03 0.00 86 1012.8
20260902043006 26 229 3.2 8.0 0.00 0.03 0.00 86 1012.8
20260902042505 26 243 3.2 11.3 0.00 0.03 0.00 86 1012.8
20260902042006 26 241 1.6 4.8 0.00 0.03 0.00 86 1012.7
20260902041505 26 244 0.0 9.7 0.00 0.03 0.00 86 1012.7
20260902041006 26 222 0.0 4.8 0.00 0.03 0.00 86 1012.7
20260902040505 26 222 0.0 4.8 0.00 0.03 0.00 86 1012.7
20260902035505 26 223 3.2 8.0 0.00 0.03 0.03 86 1012.7
20260902034505 26 220 3.2 8.0 0.00 0.03 0.03 86 1012.7
20260902034006 26 227 4.8 8.0 0.00 0.03 0.03 86 1012.7
20260902033505 26 236 4.8 12.9 0.00 0.03 0.03 86 1012.7
20260902032505 27 203 3.2 8.0 0.00 0.03 0.03 86 1012.6
20260902032006 27 223 4.8 9.7 0.00 0.03 0.03 86 1012.6
20260902031505 27 206 3.2 8.0 0.00 0.03 0.03 86 1012.6
20260902031006 27 245 3.2 11.3 0.00 0.03 0.03 86 1012.6
20260902030505 27 225 3.2 8.0 0.00 0.03 0.03 86 1012.5
20260902030005 27 223 3.2 12.9 0.00 0.03 0.03 86 1012.5
20260902025505 27 214 1.6 8.0 0.00 0.03 0.03 86 1012.5
20260902024504 27 193 3.2 9.7 0.00 0.03 0.03 87 1012.5
20260902024006 27 184 1.6 9.7 0.00 0.03 0.03 87 1012.5
20260902023505 27 216 4.8 9.7 0.00 0.03 0.03 87 1012.5
20260902023007 27 189 3.2 8.0 0.00 0.03 0.03 87 1012.5
20260902022505 27 194 1.6 4.8 0.00 0.03 0.03 87 1012.4
20260902022006 27 188 3.2 4.8 0.00 0.03 0.03 87 1012.4
20260902021505 27 188 1.6 4.8 0.00 0.03 0.03 87 1012.4
20260902021005 27 192 3.2 4.8 0.00 0.03 0.03 87 1012.5
20260902020505 27 196 1.6 4.8 0.00 0.03 0.03 86 1012.6
20260902020005 27 196 0.0 4.8 0.00 0.03 0.03 86 1012.6
20260902015505 27 190 0.0 0.0 0.00 0.03 0.03 86 1012.6
20260902015005 27 189 0.0 0.0 0.00 0.03 0.03 86 1012.6
20260902014006 27 182 0.0 0.0 0.00 0.03 0.03 86 1012.6
20260902013006 27 182 0.0 0.0 0.00 0.03 0.03 85 1012.6
20260902012505 27 182 0.0 0.0 0.00 0.03 0.03 84 1012.6
20260902012006 27 182 0.0 0.0 0.00 0.03 0.03 84 1012.6